Grand Rapids, MN

6:02 AM CDT on October 01, 2016 (GMT -0500)
Grand Rapids-Itasca County-Newstrom Field

Weather History for KGPZ - January, 2013

Change the Weather History Date:

Thursday, January 3, 2013

  Actual Average Record
Temperature  
Mean Temperature 12 °F -  
Max Temperature 19 °F 16 °F 41 °F (1927)
Min Temperature 6 °F -3 °F -38 °F (1919)
Degree Days  
Heating Degree Days 52    
Moisture  
Dew Point 8 °F    
Average Humidity 81    
Maximum Humidity 93    
Minimum Humidity 67    
Precipitation  
Precipitation 0.00 in - - ()
Sea Level Pressure  
Sea Level Pressure 30.03 in    
Wind  
Wind Speed 12 mph (West)    
Max Wind Speed 20 mph    
Max Gust Speed 22 mph    
Visibility 10 miles    
Events      
Averages and records for this station are not official NWS values.
T = Trace of Precipitation, MM = Missing Value Source: NWS Daily Summary

Daily Weather History Graph

Daily Weather History Graph

Search for Another Location

Airport or City:

Trip Planner

Search our weather history database for the weather conditions in past years. The results will help you decide how hot, cold, wet, or windy it might be!

Date:

Astronomy

Jan. 03, 2013 Rise Set
Actual Time 8:00 AM CST 4:37 PM CST
Civil Twilight 7:25 AM CST 5:12 PM CST
Nautical Twilight 6:46 AM CST 5:51 PM CST
Astronomical Twilight 6:09 AM CST 6:28 PM CST
Moon 11:42 PM CST (1/3) 10:45 AM CST (1/3)
Length of Visible Light 9h 47m
Length of Day
8h 36m
Waning Gibbous, 65% of the Moon is Illuminated
Jan 3
Waning Gibbous
Jan 4
Last Quarter
Jan 11
New
Jan 18
First Quarter
Jan 26
Full

Hourly Weather History & Observations

Time (CST) Temp. Windchill Dew Point Humidity Pressure Visibility Wind Dir Wind Speed Gust Speed Precip Events Conditions
12:15 AM 17.6 °F 3.7 °F 15.8 °F 93% 30.03 in 10.0 mi NW 13.8 mph - N/A   Overcast
12:35 AM 17.6 °F 4.3 °F 14.0 °F 86% 30.03 in 10.0 mi NW 12.7 mph - N/A   Overcast
12:55 AM 15.8 °F 0.3 °F 14.0 °F 93% 30.03 in 10.0 mi NNW 16.1 mph - N/A   Overcast
1:15 AM 15.8 °F 0.9 °F 14.0 °F 93% 30.03 in 10.0 mi NW 15.0 mph - N/A   Overcast
1:35 AM 15.8 °F 0.9 °F 12.2 °F 86% 30.03 in 10.0 mi NW 15.0 mph - N/A   Overcast
1:55 AM 15.8 °F 0.9 °F 12.2 °F 86% 30.04 in 10.0 mi NNW 15.0 mph - N/A   Overcast
2:15 AM 15.8 °F 0.9 °F 12.2 °F 86% 30.05 in 10.0 mi NW 15.0 mph 20.7 mph N/A   Overcast
2:35 AM 14.0 °F -1.4 °F 12.2 °F 93% 30.06 in 10.0 mi NW 15.0 mph 19.6 mph N/A   Overcast
2:55 AM 14.0 °F -3.4 °F 10.4 °F 86% 30.07 in 10.0 mi NNW 19.6 mph - N/A   Overcast
3:15 AM 12.2 °F -3.1 °F 8.6 °F 85% 30.07 in 10.0 mi NW 13.8 mph - N/A   Overcast
3:35 AM 12.2 °F -4.8 °F 8.6 °F 85% 30.09 in 10.0 mi NW 17.3 mph 20.7 mph N/A   Overcast
3:55 AM 10.4 °F -7.7 °F 6.8 °F 85% 30.09 in 10.0 mi NNW 18.4 mph 21.9 mph N/A   Overcast
4:15 AM 10.4 °F -4.8 °F 8.6 °F 92% 30.10 in 10.0 mi NW 12.7 mph - N/A   Overcast
4:35 AM 10.4 °F -5.4 °F 6.8 °F 85% 30.10 in 10.0 mi NNW 13.8 mph - N/A   Overcast
4:55 AM 10.4 °F -4.8 °F 6.8 °F 85% 30.10 in 10.0 mi NW 12.7 mph - N/A   Overcast
5:15 AM 10.4 °F -4.8 °F 6.8 °F 85% 30.11 in 10.0 mi NNW 12.7 mph - N/A   Overcast
5:35 AM 10.4 °F -4.1 °F 6.8 °F 85% 30.11 in 7.0 mi NW 11.5 mph - N/A   Overcast
5:55 AM 10.4 °F -4.8 °F 6.8 °F 85% 30.12 in 7.0 mi NNW 12.7 mph - N/A   Overcast
6:15 AM 10.4 °F -5.4 °F 6.8 °F 85% 30.12 in 9.0 mi NW 13.8 mph - N/A   Overcast
6:35 AM 10.4 °F -6.0 °F 6.8 °F 85% 30.12 in 9.0 mi NW 15.0 mph - N/A   Overcast
6:55 AM 10.4 °F -6.6 °F 6.8 °F 85% 30.13 in 10.0 mi NW 16.1 mph - N/A   Overcast
7:15 AM 8.6 °F -7.0 °F 3.2 °F 79% 30.12 in 10.0 mi NW 12.7 mph - N/A   Overcast
7:35 AM 8.6 °F -5.5 °F 5.0 °F 85% 30.13 in 9.0 mi NW 10.4 mph - N/A   Overcast
7:55 AM 8.6 °F -7.7 °F 3.2 °F 79% 30.13 in 10.0 mi NW 13.8 mph - N/A   Overcast
8:15 AM 8.6 °F -5.5 °F 3.2 °F 79% 30.13 in 8.0 mi NW 10.4 mph - N/A   Overcast
8:35 AM 6.8 °F -9.3 °F 3.2 °F 85% 30.13 in 9.0 mi WNW 12.7 mph - N/A   Overcast
8:55 AM 6.8 °F -7.8 °F 3.2 °F 85% 30.14 in 10.0 mi WNW 10.4 mph - N/A   Overcast
9:15 AM 6.8 °F -4.8 °F 3.2 °F 85% 30.14 in 10.0 mi WNW 6.9 mph - N/A   Overcast
9:35 AM 6.8 °F -5.9 °F 1.4 °F 79% 30.14 in 10.0 mi West 8.1 mph - N/A   Overcast
9:55 AM 6.8 °F -3.5 °F 3.2 °F 85% 30.13 in 10.0 mi West 5.8 mph - N/A   Scattered Clouds
10:15 AM 6.8 °F -4.8 °F 1.4 °F 79% 30.14 in 10.0 mi West 6.9 mph - N/A   Partly Cloudy
10:35 AM 8.6 °F -3.7 °F 3.2 °F 79% 30.14 in 10.0 mi West 8.1 mph - N/A   Partly Cloudy
10:55 AM 8.6 °F -3.7 °F 3.2 °F 79% 30.13 in 10.0 mi West 8.1 mph - N/A   Clear
11:15 AM 8.6 °F -2.6 °F 5.0 °F 85% 30.13 in 10.0 mi West 6.9 mph - N/A   Clear
11:35 AM 10.4 °F -0.4 °F 3.2 °F 73% 30.12 in 10.0 mi West 6.9 mph - N/A   Clear
11:55 AM 10.4 °F -0.4 °F 3.2 °F 73% 30.11 in 10.0 mi West 6.9 mph - N/A   Clear
12:15 PM 10.4 °F -1.5 °F 5.0 °F 79% 30.11 in 10.0 mi West 8.1 mph - N/A   Clear
12:35 PM 10.4 °F -2.4 °F 5.0 °F 79% 30.09 in 10.0 mi West 9.2 mph - N/A   Clear
12:55 PM 12.2 °F -1.0 °F 3.2 °F 67% 30.07 in 10.0 mi SW 10.4 mph - N/A   Clear
1:15 PM 12.2 °F -0.2 °F 3.2 °F 67% 30.07 in 10.0 mi West 9.2 mph - N/A   Clear
1:35 PM 12.2 °F -0.2 °F 6.8 °F 79% 30.06 in 10.0 mi WSW 9.2 mph - N/A   Clear
1:55 PM 12.2 °F 0.7 °F 6.8 °F 79% 30.05 in 10.0 mi WSW 8.1 mph - N/A   Clear
2:15 PM 14.0 °F 2.9 °F 6.8 °F 73% 30.04 in 10.0 mi WSW 8.1 mph - N/A   Clear
2:35 PM 15.8 °F 4.2 °F 6.8 °F 68% 30.03 in 10.0 mi SW 9.2 mph - N/A   Clear
2:55 PM 15.8 °F 4.2 °F 6.8 °F 68% 30.04 in 10.0 mi SW 9.2 mph - N/A   Clear
3:15 PM 15.8 °F 4.2 °F 6.8 °F 68% 30.03 in 10.0 mi WSW 9.2 mph - N/A   Clear
3:35 PM 15.8 °F 4.2 °F 6.8 °F 68% 30.03 in 10.0 mi SW 9.2 mph - N/A   Clear
3:55 PM 15.8 °F 5.1 °F 6.8 °F 68% 30.03 in 10.0 mi WSW 8.1 mph - N/A   Clear
4:15 PM 15.8 °F 6.1 °F 6.8 °F 68% 30.03 in 10.0 mi SW 6.9 mph - N/A   Clear
4:35 PM 15.8 °F 3.4 °F 6.8 °F 68% 30.01 in 10.0 mi SW 10.4 mph - N/A   Clear
4:55 PM 14.0 °F 1.2 °F 6.8 °F 73% 30.00 in 10.0 mi SSW 10.4 mph 16.1 mph N/A   Clear
5:15 PM 14.0 °F 2.9 °F 8.6 °F 79% 29.99 in 10.0 mi SW 8.1 mph - N/A   Clear
5:35 PM 14.0 °F 1.2 °F 8.6 °F 79% 29.98 in 10.0 mi SSW 10.4 mph - N/A   Clear
5:55 PM 14.0 °F 2.0 °F 8.6 °F 79% 29.97 in 10.0 mi SSW 9.2 mph 16.1 mph N/A   Clear
6:15 PM 12.2 °F -0.2 °F 8.6 °F 85% 29.96 in 10.0 mi SSW 9.2 mph - N/A   Clear
6:35 PM 12.2 °F -0.2 °F 8.6 °F 85% 29.95 in 10.0 mi SSW 9.2 mph - N/A   Clear
6:55 PM 12.2 °F 0.7 °F 8.6 °F 85% 29.95 in 10.0 mi SW 8.1 mph - N/A   Clear
7:15 PM 12.2 °F 1.7 °F 8.6 °F 85% 29.94 in 10.0 mi SW 6.9 mph - N/A   Clear
7:35 PM 12.2 °F -1.0 °F 8.6 °F 85% 29.92 in 10.0 mi SSW 10.4 mph - N/A   Clear
7:55 PM 12.2 °F -1.0 °F 10.4 °F 92% 29.91 in 10.0 mi SW 10.4 mph 16.1 mph N/A   Clear
8:15 PM 14.0 °F 1.2 °F 10.4 °F 86% 29.90 in 10.0 mi SSW 10.4 mph - N/A   Clear
8:35 PM 14.0 °F -0.2 °F 10.4 °F 86% 29.88 in 10.0 mi SSW 12.7 mph 18.4 mph N/A   Clear
8:55 PM 15.8 °F 4.2 °F 10.4 °F 79% 29.88 in 10.0 mi SW 9.2 mph 18.4 mph N/A   Clear
9:15 PM 15.8 °F 5.1 °F 12.2 °F 86% 29.88 in 10.0 mi SW 8.1 mph - N/A   Clear
9:35 PM 15.8 °F 6.1 °F 12.2 °F 86% 29.86 in 10.0 mi SW 6.9 mph - N/A   Clear
9:55 PM 17.6 °F 7.3 °F 12.2 °F 79% 29.86 in 10.0 mi SW 8.1 mph - N/A   Clear
10:15 PM 17.6 °F 5.7 °F 12.2 °F 79% 29.84 in 10.0 mi SW 10.4 mph - N/A   Clear
10:35 PM 19.4 °F 8.6 °F 12.2 °F 74% 29.83 in 10.0 mi SW 9.2 mph 16.1 mph N/A   Clear
10:55 PM 19.4 °F 7.9 °F 12.2 °F 74% 29.86 in 10.0 mi West 10.4 mph - N/A   Clear
11:15 PM 19.4 °F 11.5 °F 12.2 °F 74% 29.86 in 10.0 mi WSW 5.8 mph - N/A   Clear
11:35 PM 17.6 °F 5.0 °F 12.2 °F 79% 29.86 in 10.0 mi WSW 11.5 mph - N/A   Clear
11:55 PM 17.6 °F 8.2 °F 12.2 °F 79% 29.86 in 10.0 mi WSW 6.9 mph - N/A   Clear